Погода Ливны

Погода Ливны : погода сейчас, прогноз погоды и архив. Всё, что Вы хотите узнать о погоде Ливны!

Хотите узнать прогноз погоды Ливны? Тогда Вам сюда: Погода Ливны

Поиск расширенной информации на нашем сайте:

Другие новости

Новости СМИ2

Главная страница сайта

Новости сайта

03.07.2017

Напоминаем, что на нашем специализированном сайте Метеоцентр.Азия вы можете получить высокодетализированные автоматические прогнозы погоды по пунктам России, СНГ и мира в авиационном формате (включающие направление и скорость ветра, видимость, явления погоды, количество и форму облачности, нижнюю и верхнюю границу облачности).


Погода Ливны - сегодня

Время (UTC), дата Ветер
(°,м/с) 
Видим.   Явления Облачность Т
(°С)
Тd
(°С)
f(%) Тe
(°С)
Pmin
(гПа)
dP
(гПа)
Po
(мм)
O2
(г/м3)
Тmin Tmax R s Состояние
почвы
12 15.04.18 290 (З) 20000 м    ясно 
+15.9 -4.4 24 +16  1024.5  -2.3  752  287           
15 15.04.18 290 (З) 10 км    ясно 
+15.7 -4.4 25 +16  1022.5  -1.9  751  287           
21 15.04.18 тихо ()   10 км    3/3 600 м 
[Sc]
+7.3 +0.8 63 +7  1022.7  -0.4  751  294           
00 16.04.18 250 (З) 10 км    6/3 600 м верхняя 
[Sc|Ci fib]
+7.4 +1.5 66 +8  1022.1  -0.6  750  294           
09 16.04.18 300 (СЗ) 10 км    6/0 верхняя 
[Ci fib]
+17.5 +3.3 39 +18  1021.2  -0.1  750  284           
12 16.04.18 220 (ЮЗ) 10 км    8/0 верхняя 
[Cs]
+19.6 +2.3 32 +21  1019.8  -1.2  749  281           
15 16.04.18 270 (З) 10 км    8/3 600 м верхняя 
[Sc|Cs]
+19.4 +4.5 37 +20  1018.5  -1.3  748  281           
00 17.04.18 тихо ()   10 км    10/10 600 м 
[Sc]
+7.4 +4.2 80 +7  1018.6  -0.3  748  293           
09 17.04.18 260 (З) 10 км    10/0 средняя, верхняя 
[Ac trans|Cc]
+20 +6.5 41 +20  1017.5  -0.6  747  280           
12 17.04.18 280 (З) 10 км    9/0 средняя, верхняя 
[Ac trans|Cc]
+21.8 +7.1 39 +22  1016.9  -0.5  747  278           
15 17.04.18 270 (З) 10 км    10/8 600 м средняя 
[Sc|As op]
+19.7 +4.4 36 +21  1016.7  -0.3  747  280           
21 17.04.18 240 (ЮЗ) 10 км    9/4 600 м средняя 
[Sc|Ac As]
+12.6 +1.7 47 +14  1016.7  -0.4  746  287           
00 18.04.18 220 (ЮЗ) 10 км    10/10 600 м 
[Sc]
+11.5 -0.6 43 +12  1015.5  -1.2  746  288           
09 18.04.18 250 (З) 4000 м  слаб. дождь  10/10 300 м 
[Ns]
+8.8 +7.5 92 +9  1011.4  -1.6  742  288           
21 18.04.18 290 (З) 10 км    9/9 600 м 
[Sc]
+8.6 +4.3 74 +8  1009.5  -2.4  741  289           
18 19.04.18 020 (С) 10-16{17}  10 км  слаб. дождь  10/10 300 м 
[Ns]
+7.4 +4.4 81 +4  1004.2  737  288    +9.1     
21 20.04.18 340 (С) 10 км    3/3 600 м 
[Sc]
+7.6 -0.4 57 +9  1014.5  -0.3  745  292           
00 21.04.18 260 (З) 10 км    8/5 600 м верхняя 
[Sc|Ci fib]
+5.5 -0.6 65 +5  1013.5  -1.1  744  294           
18 21.04.18 300 (СЗ) 5-10{20}  4000 м  слаб. ливневой дождь  10/10 600 м кучево-дожд. 
[Cb calv]
+11.9 +9.7 86 +12  996.5  -0.8  732  281    +20.5  0.3     
18 22.04.18 030 (СВ) 3{16}  10 км  слаб. ливневой дождь{гроза}  9/9 300 м кучево-дожд. 
[Cb calv]
+4.7 +2.5 86 +4  1005.8  2.6  738  292    +10.6     
21 22.04.18 020 (С) 10 км  {ливн. осадки}  9/8 600 м средняя, верхняя 
[Sc|Ac trans|Ci fib]
+2.9 -0.7 77 +1  1008.5  2.5  740  295           
00 23.04.18 320 (СЗ) 10 км  {ливн. осадки}  ясно 
+0.5 -2.8 79 -1  1009.7  741  298           
09 23.04.18 360 (С) 6{11}  20000 м    9/9 600 м 
[Sc]
+4.7 -5.6 47 +2  1013.9  0.9  744  295           
21 23.04.18 260 (З) 10 км    1/1 600 м 
[Sc]
+1.6 -5 61 +1  1015.3  0.1  745  299           
00 24.04.18 260 (З) 10 км    ясно 
+0.2 -4.9 69 -1  1016  0.5  745  301           
Время (UTC), дата Ветер
(°,м/с) 
Видим.   Явления Облачность Т
(°С)
Тd
(°С)
f(%) Тe
(°С)
Pmin
(гПа)
dP
(гПа)
Po
(мм)
O2
(г/м3)
Тmin Tmax R s Состояние
почвы

Для получения пояснительной информации подведите курсор к названию столбца.

ПОГОДА Ливны - архив

Всё, что Вы хотите узнать о погоде Ливны - удобно и подробно!

Выберите нужную дату (начиная с 1 января 2015* года) и нажмите кнопку "Найти".
Будут отображены архивные сводки погоды по пункту Ливны, начиная с указанной даты.


Отображать данные в формате CSV (для использования в таблицах Excel)


Внимание! Наш архив погоды предназначен исключительно для личного некоммерческого использования в познавательных целях. Если Вам необходимы официальные справки о состоянии погоды (для производственных, юридических, коммерческих и т.п. целей), обращайтесь в органы Росгидромета.

*Примечание: данная дата относится к архиву по метеостанциям СССР (Россия, СНГ, Балтия).
Архив по метеостанциям Зарубежной Европы и Азии (кроме Китая) хранится 10 дней, по другим регионам земного шара (Китай, Африка, Америка, Австралия, Океания) - 1 день.

Ливны - район местоположения метеостанции


Название, широта, долгота, высота метеостанции:
Ливны 52.4°ш. 37.6°д. 179 м над ур. моря [Российская Федерация]

Дополнительная информация

В oтличие oт бoльшинства пoгoдных сайтoв мы публикуем пoдрoбную метеoинфoрмацию в детальнoм прoфессиoнальнoм фoрмате.

Характеристики температуры и влажнoсти вoздуха измеряются на высoте 2 м в тени вдали oт зданий и деревьев.
Скoрoсть ветра измеряется на высoте 10 м (на урoвне рoста челoвека скoрoсть ветра ниже в 1.5-2 раза). Если метеoстанция нахoдится в гoрoде или в лесу, тo скoрoсть ветра занижена на 2-4 м/с пo сравнению с oткрытым местoм. Скoрoсть ветра над акватoриями крупных рек и oзёр, а также на вершинах хoлмoв на 2-5 м/с выше, чем в oбычных услoвиях.
Атмoсфернoе давление в разных тoчках местнoсти мoжет значительнo oтличаться oт давления на метеoстанции, в зависимoсти oт услoвий рельефа (при пoдъёме на 10 м давление пoнижается примернo на 1 мм рт.ст.).